Weather History for SKCC - March, 2013

Change the Weather History Date:

Tuesday, March 26, 2013

  Actual Average (SVSA) Record (SVSA)
Temperature  
Mean Temperature 86 °F -  
Max Temperature 98 °F 89 °F 96 °F (2001)
Min Temperature 75 °F 72 °F 69 °F (2009)
Cooling Degree Days 22    
Growing Degree Days 36 (Base 50)    
Moisture  
Dew Point 70 °F    
Average Humidity 62    
Maximum Humidity 94    
Minimum Humidity 22    
Precipitation  
Precipitation 0.00 in 0.13 in - ()
Sea Level Pressure  
Sea Level Pressure 29.85 in    
Wind  
Wind Speed 5 mph ()    
Max Wind Speed 23 mph    
Max Gust Speed -    
Visibility 6.6 miles    
Events Fog    
Averages and records for this station are not official NWS values.
T = Trace of Precipitation, MM = Missing Value Source: Averaged Metar Reports

Daily Weather History Graph

Daily Weather History Graph

Search for Another Location

Airport or City:

Trip Planner

Search our weather history database for the weather conditions in past years. The results will help you decide how hot, cold, wet, or windy it might be!

Date:

Astronomy

Mar. 26, 2013 Rise Set
Actual Time 5:50 AM COT 6:00 PM COT
Civil Twilight 5:30 AM COT 6:21 PM COT
Nautical Twilight 5:05 AM COT 6:45 PM COT
Astronomical Twilight 4:41 AM COT 7:09 PM COT
Moon 5:30 PM COT (3/26) 5:02 AM COT (3/26)
Length of Visible Light 12h 51m
Length of Day
12h 09m
Waxing Gibbous, 99% of the Moon is Illuminated
Mar 26
Waxing Gibbous
Mar 27
Full
Apr 2
Last Quarter
Apr 10
New
Apr 18
First Quarter

Hourly Weather History & Observations

Time (COT) Temp. Heat Index Dew Point Humidity Pressure Visibility Wind Dir Wind Speed Gust Speed Precip Events Conditions
5:00 AM 75.2 °F - 73.4 °F 94% 29.88 in 4.3 mi Calm Calm - N/A   Scattered Clouds
5:30 AM 75.2 °F - 73.4 °F 94% 29.89 in 3.7 mi Variable 2.3 mph - N/A Fog Fog
6:00 AM 75.2 °F - 71.6 °F 89% 29.90 in 4.3 mi Variable 2.3 mph - N/A   Scattered Clouds
7:00 AM 77 °F - 74 °F 87% 29.82 in 4 mi 2.2 mph - -   Haze
7:00 AM 77.0 °F - 73.4 °F 89% 29.93 in 4.3 mi Variable 2.3 mph - N/A   Scattered Clouds
7:26 AM - - - N/A% 29.94 in 5.0 mi Variable 2.3 mph - N/A   Scattered Clouds
8:00 AM 80.6 °F 85.4 °F 73.4 °F 79% 29.93 in 6.2 mi West 4.6 mph - N/A   Partly Cloudy
9:00 AM 89.6 °F 91.1 °F 64.4 °F 43% 29.92 in 6.2 mi SSE 16.1 mph - N/A   Partly Cloudy
10:00 AM 90 °F - 64 °F 32% 29.80 in 12 mi SSE 20.1 mph - -   Scattered Clouds
10:00 AM 91.4 °F 93.2 °F 64.4 °F 41% 29.92 in 6.2 mi SSE 20.7 mph - N/A   Partly Cloudy
11:00 AM 93.2 °F 94.1 °F 62.6 °F 36% 29.90 in 6.2 mi SSE 18.4 mph - N/A   Partly Cloudy
12:00 PM 95.0 °F 96.0 °F 62.6 °F 34% 29.87 in 6.2 mi South 23.0 mph - N/A   Partly Cloudy
1:00 PM 96 °F - 61 °F 22% 29.72 in 12 mi South 13.4 mph - -   Scattered Clouds
1:00 PM 96.8 °F 97.1 °F 60.8 °F 30% 29.84 in 6.2 mi South 13.8 mph - N/A   Partly Cloudy
2:00 PM 96.8 °F 97.1 °F 60.8 °F 30% 29.81 in 6.2 mi Variable 2.3 mph - N/A   Partly Cloudy
3:00 PM 93.2 °F 98.8 °F 69.8 °F 46% 29.80 in 6.2 mi North 4.6 mph - N/A   Partly Cloudy
4:00 PM 92 °F - 74 °F 48% 29.68 in 9 mi North 4.5 mph - -   Scattered Clouds
4:00 PM 93.2 °F 105.0 °F 75.2 °F 56% 29.80 in 6.2 mi North 4.6 mph - N/A   Partly Cloudy
5:00 PM 89.6 °F 99.8 °F 75.2 °F 62% 29.81 in 6.2 mi North 4.6 mph - N/A   Partly Cloudy
6:00 PM 86.0 °F 95.1 °F 75.2 °F 70% 29.84 in 6.2 mi North 4.6 mph - N/A   Partly Cloudy
7:00 PM 84 °F - 74 °F 65% 29.73 in 9 mi Calm Calm - -   Scattered Clouds
7:00 PM 84.2 °F 92.3 °F 75.2 °F 74% 29.84 in 6.2 mi Calm Calm - N/A   Partly Cloudy
8:00 PM 82.4 °F 88.2 °F 73.4 °F 74% 29.88 in 6.2 mi Calm Calm - N/A   Partly Cloudy
9:00 PM 82.4 °F 88.2 °F 73.4 °F 74% 29.92 in 6.2 mi Calm Calm - N/A   Partly Cloudy
10:00 PM 80 °F - 74 °F 77% 29.81 in 11 mi Calm Calm - -   Scattered Clouds
10:00 PM 80.6 °F 85.4 °F 73.4 °F 79% 29.92 in 6.2 mi Calm Calm - N/A   Partly Cloudy
11:00 PM 80.6 °F 85.4 °F 73.4 °F 79% 29.94 in 6.2 mi Calm Calm - N/A   Partly Cloudy